HULIANWANG DIGUI 12H

Last updated on Sun Oct 19 2025 00:02:08 GMT+0000 (Coordinated Universal Time)

1 66002U 25231H 25291.38405412 -.00000112 00000+0 24717-4 0 9992 2 66002 50.0073 348.3715 0007643 281.0803 78.9243 14.05944123 336
UTC large
Height (km)
Speed (km/s)
/
Latitude / Longitude
Inclination (degrees)
Orbital Period (minutes)
Azimuth
Elevation
Range (km)
Doppler Factor

Next 0 passes for location: London (51.5072 / 0.1276)

Sorry there are no passes over London.